Philip, SD

5:31 PM MST on November 18, 2017 (GMT -0700)
Philip

Weather History for KPHP - November, 2014

Change the Weather History Date:

Wednesday, November 5, 2014

  Actual Average Record
Temperature  
Mean Temperature 45 °F 39 °F  
Max Temperature 61 °F 53 °F 81 °F (1975)
Min Temperature 28 °F 26 °F -4 °F (1959)
Degree Days  
Heating Degree Days 20 26  
Month to date heating degree days 92 124  
Since 1 July heating degree days 710 827  
Cooling Degree Days 0 0  
Month to date cooling degree days 0 0  
Year to date cooling degree days 649 818  
Moisture  
Dew Point 27 °F    
Average Humidity 45    
Maximum Humidity 71    
Minimum Humidity 19    
Precipitation  
Precipitation T in 0.02 in 1.08 in (2008)
Month to date precipitation T 0.14  
Year to date precipitation 15.93 16.44  
Sea Level Pressure  
Sea Level Pressure 30.13 in    
Wind  
Wind Speed 16 mph (NW)    
Max Wind Speed 38 mph    
Max Gust Speed 46 mph    
Visibility 10 miles    
Events      
T = Trace of Precipitation, MM = Missing Value Source: NWS Daily Summary

Daily Weather History Graph

Daily Weather History Graph

Search for Another Location

Airport or City:

Trip Planner

Search our weather history database for the weather conditions in past years. The results will help you decide how hot, cold, wet, or windy it might be!

Date:

Astronomy

Nov. 05, 2014 Rise Set
Actual Time 6:28 AM MST 4:31 PM MST
Civil Twilight 5:57 AM MST 5:01 PM MST
Nautical Twilight 5:23 AM MST 5:35 PM MST
Astronomical Twilight 4:49 AM MST 6:09 PM MST
Moon 4:00 PM MST (11/5) 4:52 AM MST (11/5)
Length of Visible Light 11h 03m
Length of Day
10h 02m
Waxing Gibbous, 98% of the Moon is Illuminated
Nov 5
Waxing Gibbous
Nov 6
Full
Nov 14
Last Quarter
Nov 22
New
Nov 29
First Quarter

Hourly Weather History & Observations

Time (MST) Temp. Windchill Dew Point Humidity Pressure Visibility Wind Dir Wind Speed Gust Speed Precip Events Conditions
12:55 AM 46.9 °F - 28.9 °F 50% 29.93 in 10.0 mi WNW 5.8 mph - N/A   Overcast
1:55 AM 55.0 °F - 32.0 °F 42% 29.93 in 10.0 mi NNW 19.6 mph - N/A   Overcast
2:55 AM 50.0 °F - 34.0 °F 54% 29.93 in 10.0 mi NW 3.5 mph - 0.00 in   Mostly Cloudy
3:55 AM 48.9 °F - 33.1 °F 54% 29.96 in 10.0 mi WNW 4.6 mph - N/A   Overcast
4:55 AM 52.0 °F - 39.0 °F 61% 29.99 in 10.0 mi NW 18.4 mph 24.2 mph N/A   Overcast
5:55 AM 48.0 °F - 39.0 °F 71% 30.00 in 10.0 mi West 9.2 mph - N/A   Overcast
6:55 AM 48.9 °F - 39.0 °F 69% 30.02 in 10.0 mi West 11.5 mph - N/A   Mostly Cloudy
7:55 AM 52.0 °F - 37.9 °F 59% 30.05 in 10.0 mi West 13.8 mph - N/A   Scattered Clouds
8:55 AM 57.0 °F - 37.0 °F 47% 30.06 in 10.0 mi NW 25.3 mph 40.3 mph N/A   Clear
9:55 AM 57.9 °F - 35.1 °F 42% 30.08 in 10.0 mi NW 31.1 mph 40.3 mph N/A   Clear
10:55 AM 59.0 °F - 32.0 °F 36% 30.08 in 10.0 mi NW 33.4 mph 46.0 mph N/A   Clear
11:55 AM 59.0 °F - 30.9 °F 35% 30.09 in 10.0 mi NW 32.2 mph 42.6 mph N/A   Clear
12:55 PM 59.0 °F - 26.1 °F 28% 30.09 in 10.0 mi NW 28.8 mph 42.6 mph N/A   Clear
1:55 PM 59.0 °F - 19.9 °F 22% 30.10 in 10.0 mi NW 25.3 mph 42.6 mph N/A   Clear
2:55 PM 57.9 °F - 16.0 °F 19% 30.14 in 10.0 mi NNW 33.4 mph 41.4 mph N/A   Clear
3:55 PM 55.0 °F - 14.0 °F 20% 30.17 in 10.0 mi NW 25.3 mph 35.7 mph N/A   Clear
4:55 PM 50.0 °F - 17.1 °F 27% 30.21 in 10.0 mi NW 17.3 mph - N/A   Clear
5:55 PM 43.0 °F 37.7 °F 18.0 °F 37% 30.26 in 10.0 mi NW 9.2 mph - N/A   Clear
6:55 PM 36.0 °F 30.3 °F 18.0 °F 48% 30.29 in 10.0 mi NW 6.9 mph - N/A   Clear
7:55 PM 34.0 °F 26.6 °F 19.0 °F 54% 30.32 in 10.0 mi West 9.2 mph - N/A   Clear
8:55 PM 33.1 °F 26.9 °F 21.0 °F 61% 30.34 in 10.0 mi WNW 6.9 mph - N/A   Clear
9:55 PM 34.0 °F 28.8 °F 21.9 °F 61% 30.35 in 10.0 mi NW 5.8 mph - N/A   Clear
10:55 PM 30.9 °F 24.3 °F 19.9 °F 64% 30.37 in 10.0 mi WNW 6.9 mph - N/A   Scattered Clouds
11:55 PM 30.0 °F 22.4 °F 21.0 °F 69% 30.37 in 10.0 mi West 8.1 mph - N/A   Mostly Cloudy